Location: York
(31.8935°S, 116.7682°E)
Time: 23:14:27
(UTC+08:00)

Envisat - Pass Details

Date: 23 May 2021
Orbit: 764 x 766 km, 98.1° (Epoch: 14 June)

Event Time Altitude Azimuth Distance (km) Brightness Sun altitude
Rises 18:40:20 0° 187° (S) 3,264 6.2 -17.0°
Reaches altitude 10° 18:43:13 10° 202° (SSW) 2,330 5.6 -17.6°
Maximum altitude 18:46:52 20° 248° (WSW) 1,728 5.5 -18.3°
Drops below altitude 10° 18:50:30 10° 294° (WNW) 2,310 6.7 -19.1°
Sets 18:53:20 0° 310° (NW) 3,227 7.3 -19.7°
